{"data":{"norad_id":58340,"intl_designator":"2023-174CN","name":"LEMUR-2-MJR092620","alt_names":[],"object_type":"PAYLOAD","status":"ACTIVE","operator":null,"country":"US","launch_date":"2023-11-11","launch_site_code":"AFWTR","launch_vehicle":null,"mission":null,"orbit_class":"UNKNOWN","rcs_meters":null,"size_class":null,"mass_kg":null,"dimensions":null,"purposes":["earth_obs"],"wikipedia_slug":null,"has_3d_model":false,"image_url":null,"decayed_at":null,"tle_current":{"epoch":"2026-05-25T05:20:30.385824Z","epoch_age_seconds":55918,"freshness":"FRESH","line1":"1 58340U 23174CN  26145.22257391  .00018841  00000+0  41586-3 0  9994","line2":"2 58340  97.3967 234.8462 0006404 186.6919 173.4244 15.43908949142101","mean_motion":15.43908949,"eccentricity":0.0006404,"inclination_deg":97.3967,"raan_deg":234.8462,"arg_perigee_deg":186.6919,"mean_anomaly_deg":173.4244,"bstar":0.00041586,"rev_number":14210,"period_min":93.269748901494,"perigee_km":430.22292965866,"apogee_km":438.94866501749,"semimajor_km":6812.7227973381,"source":"CELESTRAK","updated_at":"2026-05-25T13:38:13.533779Z"}}}